Wind_Speed
11 12 11 11 10 11 11 11 11 11 11 10 10 10 10 10 11 12 13 13 14 14 15 16 16 18 18 19 20 20 21 22 22 22 23 24 25 25 25 26 27 27 27
12 13 13 12 11 11 12 11 12 12 11 11 11 11 11 11 12 13 13 13 14 15 15 16 17 18 19 20 21 21 22 22 22 23 24 25 26 27 27 28 28 28 29
14 14 14 14 13 12 13 13 13 12 12 12 12 12 12 12 12 13 14 14 14 15 16 16 17 18 19 20 21 22 22 23 23 25 26 26 27 28 28 28 28 28 30
14 15 15 15 14 14 14 14 13 13 13 13 13 13 13 13 13 14 15 15 15 16 16 17 17 18 19 20 21 22 23 24 24 25 26 26 27 27 27 27 27 28 29
16 16 16 17 17 16 16 16 15 15 14 14 13 13 13 14 14 14 15 15 16 17 18 18 19 20 21 22 23 23 24 24 24 25 25 26 26 26 26 27 28 29 30
18 18 18 18 18 18 17 17 15 16 16 15 15 15 15 14 14 15 16 16 16 17 18 19 19 20 22 23 23 24 24 24 24 25 25 25 26 26 27 28 29 30 30
20 20 19 19 19 18 17 18 18 18 17 17 17 16 16 16 16 17 17 17 18 18 19 20 21 21 22 23 23 24 24 24 25 26 26 27 28 28 29 29 30 31 31
21 21 20 20 19 18 18 18 19 19 18 17 17 17 17 17 18 18 18 18 19 20 20 21 21 22 23 23 23 24 24 25 26 27 28 28 28 29 29 29 30 31 31
21 21 21 21 20 19 19 19 20 20 19 19 18 18 18 18 19 19 19 20 20 21 21 22 22 23 23 23 24 25 25 25 26 27 28 28 28 28 28 28 29 30 31
23 22 22 21 20 20 20 20 21 22 21 20 20 19 20 20 20 20 21 22 22 23 23 23 24 24 24 24 24 25 25 26 28 28 28 27 27 28 28 29 30 30 30
23 23 23 22 21 21 21 22 22 22 21 21 21 20 21 21 21 22 22 23 23 24 24 25 25 25 25 25 26 26 27 27 28 28 28 28 28 28 29 29 30 30 30
24 24 24 24 23 23 23 23 23 23 22 22 22 22 22 22 22 22 22 23 24 25 25 25 26 26 26 26 26 27 27 28 29 29 28 28 28 28 29 29 29 29 29
26 26 26 25 25 25 24 24 23 23 23 24 24 24 23 23 23 23 24 24 24 25 26 27 27 27 27 28 27 28 28 29 29 29 28 28 28 28 29 29 29 29 29
28 27 26 26 26 26 25 25 24 24 25 25 24 25 25 25 25 25 25 25 26 26 27 27 28 28 28 29 28 28 29 30 29 29 29 29 29 29 28 29 29 29 29
27 27 27 27 27 27 27 26 26 25 26 26 26 26 27 26 26 26 27 27 27 27 28 28 29 29 29 29 28 28 28 29 29 29 29 29 29 29 29 29 29 29 29
29 28 28 28 28 28 27 27 27 26 26 26 26 26 26 27 27 28 28 28 28 28 29 29 29 29 28 28 28 28 29 29 29 29 29 29 29 29 29 29 29 29 28
30 29 29 29 29 28 28 28 28 27 27 27 27 27 27 27 28 28 28 28 29 29 29 29 29 28 28 28 28 28 28 29 29 29 29 29 29 29 29 28 28 28 28
31 30 29 30 29 29 28 28 28 28 27 28 27 28 28 28 28 28 29 29 29 29 29 29 29 28 28 28 28 28 29 29 29 28 28 28 28 28 28 28 28 28 28
31 30 30 30 30 29 29 29 29 28 28 28 28 29 29 29 29 29 29 29 29 29 29 28 28 28 28 27 28 28 29 28 28 28 28 28 29 29 29 28 28 28 28
31 31 31 30 30 30 30 29 29 29 29 29 29 29 29 29 29 29 29 29 28 28 28 28 28 28 28 27 28 28 29 28 28 28 28 29 29 28 28 28 28 28 27
31 31 31 31 30 31 31 30 30 30 30 30 29 29 30 30 30 30 29 28 28 29 29 28 28 28 28 28 28 29 28 27 28 28 28 28 28 28 28 27 27 28 28
31 31 31 31 31 31 32 31 31 31 31 30 30 30 30 30 30 30 29 29 29 29 29 29 29 29 29 29 28 28 28 27 28 29 28 28 28 28 28 28 28 29 29
31 31 31 31 32 32 32 31 31 31 31 31 31 30 30 30 30 30 30 29 29 29 29 29 29 28 29 29 28 28 28 29 29 28 28 28 28 29 28 28 29 30 30
31 31 31 32 32 32 32 32 31 31 31 31 31 30 30 30 30 30 30 30 30 29 29 28 28 28 27 27 28 28 29 29 29 28 28 29 29 29 29 29 30 30 30
31 31 31 32 31 31 31 31 30 30 30 30 29 29 29 29 30 30 30 30 29 29 28 28 28 28 28 28 28 29 29 29 29 29 30 30 31 31 30 30 30 30 31
31 31 31 31 30 30 30 29 29 29 28 28 28 29 29 28 29 29 29 29 29 29 28 28 28 28 28 29 29 29 29 29 30 30 31 31 32 31 31 31 31 31 31
Wind_Direction
350 350 349 345 342 343 339 338 337 335 333 332 327 317 308 302 298 293 290 292 291 292 293 292 292 293 292 294 291 289 290 289 288 289 290 288 288 287 287 286 288 286 284
346 345 343 342 340 340 339 336 335 332 329 325 322 316 310 305 302 300 295 295 295 295 295 294 293 294 294 293 293 292 292 291 289 289 288 287 287 288 288 287 287 287 287
344 342 341 340 338 336 335 334 331 328 323 320 314 311 310 307 306 306 302 299 299 298 297 296 296 296 297 296 295 295 294 292 290 290 290 289 287 288 288 289 289 288 287
335 333 333 333 331 329 328 326 325 325 323 321 317 314 310 309 310 308 305 301 299 298 299 299 299 297 297 297 297 296 296 296 294 293 292 292 292 292 293 292 290 291 291
329 328 327 329 327 325 321 322 319 320 320 320 318 316 311 308 309 310 310 307 303 301 299 299 299 299 298 299 299 299 299 298 297 297 296 296 294 294 293 292 292 292 291
326 326 323 324 325 324 323 323 319 316 315 313 312 313 311 308 307 307 309 309 308 305 303 302 301 302 302 302 302 301 300 299 298 299 298 297 296 295 293 294 294 294 295
322 323 322 320 319 321 323 322 322 321 315 312 311 310 308 306 305 305 305 306 306 305 303 302 302 302 303 303 303 303 302 300 300 300 298 297 297 296 296 296 296 296 296
318 319 318 317 316 314 316 319 320 321 317 312 310 308 306 305 305 304 303 305 306 306 305 305 305 305 305 305 305 304 303 302 301 301 299 298 297 297 298 298 298 298 298
314 315 316 314 312 311 312 314 315 316 315 312 309 307 304 303 303 303 303 303 305 306 307 307 307 306 306 306 305 305 304 304 303 302 301 300 300 300 300 300 300 301 301
310 312 312 313 312 310 309 311 313 313 312 312 311 310 306 301 299 300 302 303 304 305 305 305 305 306 306 305 305 306 305 305 304 303 303 302 301 301 301 301 302 302 303
306 310 309 309 309 310 309 309 310 309 308 309 308 308 307 303 299 298 300 302 302 303 303 304 304 305 306 306 306 306 306 306 305 305 303 302 303 302 302 302 302 303 304
303 305 306 307 307 307 306 306 307 306 307 306 306 307 306 304 301 300 300 302 303 303 304 303 304 305 305 306 306 307 307 307 306 304 303 303 303 303 303 303 303 304 305
300 301 303 303 303 304 303 305 306 305 306 308 306 305 305 305 302 300 302 302 303 304 304 305 305 305 306 306 305 305 306 307 307 306 304 304 304 304 303 304 305 305 305
298 299 300 301 301 300 301 302 303 304 305 305 304 305 304 303 303 302 302 302 303 304 304 304 305 304 304 305 305 305 305 306 307 307 306 305 305 305 305 306 307 307 307
294 295 296 298 299 299 299 300 301 301 304 303 303 303 303 301 301 302 301 301 302 303 304 304 304 304 304 305 305 305 306 306 306 307 307 306 306 306 307 307 307 307 307
292 293 294 296 296 295 297 297 298 300 301 302 302 303 303 301 300 300 301 301 301 303 304 305 305 305 305 305 305 306 306 307 307 307 307 307 307 307 307 307 307 307 308
288 289 291 293 293 293 294 295 296 297 299 300 300 301 300 300 300 300 300 300 301 303 304 305 305 305 305 305 305 306 306 307 307 307 307 307 307 308 308 308 308 308 309
285 286 288 290 291 291 292 294 295 296 298 299 299 299 300 300 300 301 301 301 302 303 304 305 304 304 304 305 305 306 306 307 307 307 308 309 309 309 309 308 309 309 309
281 283 286 287 289 290 291 292 294 295 296 297 297 298 299 300 301 301 301 300 301 303 304 304 304 303 304 304 305 305 306 307 308 308 309 309 309 309 309 309 309 309 309
278 281 284 285 287 288 290 292 293 294 294 295 295 297 298 298 300 301 302 300 301 302 303 304 304 303 303 303 303 305 306 307 308 308 309 310 310 310 309 309 310 310 311
278 280 282 284 285 287 288 290 291 291 292 293 294 295 296 297 298 299 300 300 300 301 302 302 302 303 303 303 304 305 306 307 308 309 310 311 311 310 310 309 309 310 310
279 280 282 283 284 286 287 288 289 289 290 291 292 293 294 296 297 298 298 297 298 300 300 301 301 301 301 302 303 305 306 307 308 309 309 310 310 310 309 309 309 309 310
278 280 281 282 283 286 288 288 288 288 288 289 290 291 291 293 294 296 296 297 298 299 300 301 301 301 301 301 303 305 305 305 306 307 308 309 310 310 309 309 310 310 310
280 281 282 283 284 286 286 286 287 287 288 288 288 289 290 291 293 295 296 297 298 299 299 300 300 300 299 300 302 303 304 305 306 307 308 309 310 309 309 309 309 309 309
281 282 282 283 284 285 285 286 286 286 287 287 288 289 290 291 293 294 295 295 296 297 298 298 298 299 300 301 302 303 304 304 305 306 307 308 309 309 309 309 309 309 309
280 281 283 283 284 285 285 285 285 286 286 287 289 289 290 291 293 294 295 295 297 298 297 297 297 298 299 301 303 303 304 303 303 305 307 308 308 308 308 308 309 309 309
Height
5913 5911 5909 5907 5904 5902 5900 5898 5897 5895 5893 5891 5890 5888 5887 5886 5884 5883 5882 5881 5880 5879 5877 5876 5875 5874 5872 5870 5868 5867 5865 5864 5862 5860 5858 5856 5854 5852 5851 5849 5847 5845 5843
5913 5910 5908 5906 5903 5901 5899 5897 5895 5893 5891 5890 5888 5886 5885 5883 5882 5880 5879 5878 5876 5875 5874 5872 5871 5869 5868 5866 5864 5862 5860 5858 5856 5854 5852 5850 5848 5846 5844 5842 5840 5838 5836
5912 5910 5907 5905 5902 5900 5898 5895 5893 5892 5890 5888 5885 5884 5882 5881 5879 5877 5876 5874 5873 5871 5870 5868 5866 5865 5863 5861 5859 5856 5854 5852 5850 5848 5846 5844 5841 5839 5837 5835 5832 5830 5828
5911 5908 5906 5903 5900 5898 5896 5894 5892 5890 5887 5885 5883 5881 5879 5878 5876 5874 5873 5871 5869 5868 5866 5864 5862 5860 5858 5856 5853 5851 5849 5846 5844 5842 5839 5837 5835 5832 5830 5827 5825 5823 5821
5909 5907 5904 5901 5899 5896 5893 5890 5888 5887 5885 5883 5880 5878 5876 5875 5873 5871 5869 5867 5865 5863 5862 5860 5858 5855 5853 5851 5848 5846 5843 5840 5838 5835 5833 5831 5828 5826 5823 5820 5818 5815 5813
5907 5904 5901 5899 5896 5894 5891 5888 5885 5883 5882 5880 5878 5876 5873 5872 5870 5868 5866 5864 5861 5859 5857 5855 5853 5851 5848 5845 5842 5840 5837 5834 5832 5829 5827 5824 5822 5819 5816 5813 5810 5808 5805
5904 5901 5898 5896 5894 5891 5889 5886 5883 5881 5878 5876 5874 5872 5870 5868 5866 5864 5862 5860 5858 5855 5853 5851 5848 5846 5843 5840 5837 5834 5831 5828 5826 5823 5820 5818 5815 5812 5809 5806 5803 5800 5797
5900 5897 5894 5892 5890 5888 5885 5883 5880 5877 5875 5872 5870 5868 5866 5864 5862 5860 5858 5856 5853 5851 5848 5845 5843 5840 5837 5834 5831 5828 5825 5822 5819 5816 5814 5811 5807 5804 5801 5798 5795 5792 5789
5896 5893 5891 5888 5886 5884 5881 5879 5876 5874 5871 5868 5866 5864 5862 5860 5858 5856 5853 5851 5848 5846 5843 5840 5837 5835 5831 5828 5825 5822 5819 5816 5812 5809 5806 5803 5800 5797 5793 5791 5787 5784 5781
5892 5889 5887 5884 5882 5879 5877 5875 5872 5869 5867 5864 5862 5860 5857 5855 5853 5851 5848 5846 5843 5841 5838 5835 5832 5829 5826 5822 5819 5816 5813 5809 5806 5802 5799 5796 5792 5789 5786 5783 5779 5776 5772
5888 5885 5882 5880 5877 5875 5873 5870 5868 5865 5862 5860 5857 5855 5852 5850 5848 5845 5843 5840 5838 5835 5832 5829 5826 5823 5820 5816 5813 5809 5806 5802 5799 5795 5792 5788 5785 5782 5778 5774 5771 5767 5764
5882 5880 5878 5875 5873 5871 5868 5865 5863 5860 5857 5855 5852 5850 5847 5844 5842 5840 5837 5835 5832 5829 5826 5823 5819 5816 5813 5810 5806 5803 5799 5795 5791 5788 5784 5780 5777 5774 5770 5767 5763 5759 5755
5877 5874 5872 5870 5867 5865 5863 5860 5857 5854 5852 5849 5846 5844 5841 5839 5836 5834 5831 5828 5825 5823 5820 5816 5813 5810 5806 5803 5799 5796 5792 5788 5784 5780 5777 5773 5770 5766 5763 5759 5755 5752 5748
5870 5868 5866 5864 5861 5859 5857 5854 5852 5849 5846 5843 5840 5838 5835 5833 5830 5827 5825 5822 5819 5816 5813 5809 5806 5803 5799 5796 5792 5788 5785 5781 5777 5773 5769 5766 5762 5758 5755 5751 5748 5744 5740
5863 5861 5859 5857 5855 5853 5850 5848 5846 5843 5840 5837 5834 5831 5829 5826 5824 5821 5818 5815 5812 5809 5806 5802 5799 5795 5792 5788 5785 5781 5777 5774 5770 5766 5762 5758 5755 5751 5747 5743 5740 5736 5732
5856 5854 5852 5850 5848 5846 5844 5841 5839 5836 5834 5831 5828 5825 5822 5819 5817 5814 5811 5808 5805 5802 5798 5795 5791 5788 5784 5781 5777 5774 5770 5766 5762 5759 5755 5751 5747 5743 5740 5736 5732 5728 5724
5848 5847 5845 5843 5841 5839 5836 5834 5832 5829 5827 5824 5821 5819 5816 5813 5810 5807 5804 5801 5797 5794 5791 5787 5784 5780 5777 5773 5770 5766 5762 5759 5755 5751 5747 5743 5740 5736 5732 5728 5724 5721 5717
5840 5838 5837 5835 5833 5831 5829 5827 5824 5822 5819 5817 5814 5811 5809 5806 5802 5800 5796 5793 5790 5787 5783 5780 5776 5773 5769 5766 5762 5759 5755 5751 5747 5744 5740 5736 5732 5729 5725 5721 5717 5713 5710
5832 5830 5828 5827 5825 5823 5821 5819 5816 5814 5812 5809 5806 5804 5801 5798 5795 5792 5789 5786 5782 5779 5776 5772 5769 5765 5762 5758 5755 5751 5748 5744 5740 5736 5733 5729 5725 5721 5718 5714 5710 5706 5702
5822 5821 5820 5818 5816 5815 5813 5811 5808 5806 5804 5801 5799 5796 5793 5790 5787 5784 5781 5778 5774 5771 5768 5765 5761 5758 5755 5751 5747 5744 5740 5737 5733 5730 5726 5722 5718 5714 5710 5707 5703 5699 5695
5813 5812 5811 5809 5808 5806 5804 5802 5800 5798 5795 5793 5791 5788 5785 5782 5779 5776 5773 5770 5767 5764 5760 5757 5754 5750 5747 5743 5740 5736 5733 5729 5726 5722 5719 5715 5711 5707 5703 5699 5696 5692 5688
5804 5803 5802 5801 5799 5797 5795 5793 5791 5789 5787 5784 5782 5780 5777 5774 5771 5768 5765 5762 5759 5756 5753 5749 5746 5743 5739 5736 5733 5729 5726 5722 5719 5715 5711 5707 5704 5700 5696 5692 5688 5685 5681
5795 5794 5793 5791 5790 5788 5786 5784 5782 5780 5778 5775 5773 5771 5768 5766 5763 5760 5757 5754 5751 5748 5744 5741 5738 5735 5731 5728 5725 5722 5718 5715 5711 5708 5704 5700 5696 5692 5689 5685 5681 5677 5673
5786 5785 5784 5782 5781 5779 5777 5775 5773 5771 5768 5766 5764 5762 5760 5757 5754 5751 5749 5746 5742 5739 5736 5733 5730 5727 5724 5720 5717 5714 5711 5707 5703 5700 5696 5693 5689 5685 5681 5677 5673 5669 5665
5777 5776 5774 5773 5771 5769 5768 5766 5764 5762 5760 5757 5755 5753 5751 5748 5746 5743 5740 5737 5734 5731 5728 5725 5722 5719 5716 5713 5710 5707 5703 5700 5696 5692 5689 5685 5681 5677 5673 5669 5665 5661 5657
5768 5767 5765 5764 5762 5760 5759 5757 5755 5753 5751 5749 5746 5744 5742 5740 5737 5734 5732 5729 5726 5722 5719 5717 5714 5711 5708 5705 5702 5699 5695 5692 5688 5684 5680 5677 5673 5669 5665 5661 5657 5653 5649